This is the latest recevied weather packets stored in our database for station/object W7TRD. If no packets are shown the sender has not sent any weather packets the latest 10 day(s).
| Time | Temp. | Humidity | Pressure | Rain* | Wind** | Luminosity | Snow |
|---|---|---|---|---|---|---|---|
| 1788291379 | 19.44° C | 73% | 1012.9 hPa | 0 mm | - | 225 W/m² | - |
| 1788291072 | 18.89° C | 75% | 1013 hPa | 0 mm | - | 281 W/m² | - |
| 1788290768 | 18.89° C | 73% | 1012.7 hPa | 0 mm | - | 345 W/m² | - |
| 1788290486 | 18.89° C | 75% | 1012.7 hPa | 0 mm | - | 316 W/m² | - |
| 1788290159 | 18.33° C | 75% | 1013.1 hPa | 0 mm | - | 262 W/m² | - |
| 1788289855 | 18.33° C | 76% | 1013.2 hPa | 0 mm | - | 238 W/m² | - |
| 1788289550 | 17.78° C | 78% | 1013.2 hPa | 0 mm | - | 248 W/m² | - |
| 1788289249 | 17.78° C | 80% | 1013.3 hPa | 0 mm | - | 254 W/m² | - |
| 1788288948 | 17.78° C | 78% | 1013.2 hPa | 0 mm | - | 261 W/m² | - |
| 1788288647 | 17.78° C | 79% | 1013.2 hPa | 0 mm | - | 241 W/m² | - |
| 1788288343 | 17.78° C | 80% | 1013.3 hPa | 0 mm | - | 245 W/m² | - |
| 1788288038 | 17.78° C | 80% | 1013.3 hPa | 0 mm | - | 203 W/m² | - |
| 1788287738 | 17.78° C | 80% | 1013.3 hPa | 0 mm | - | 324 W/m² | - |
| 1788287434 | 17.22° C | 81% | 1013.2 hPa | 0 mm | - | 250 W/m² | - |
| 1788287130 | 17.22° C | 83% | 1013.3 hPa | 0 mm | - | 257 W/m² | - |
| 1788286830 | 16.67° C | 86% | 1013.3 hPa | 0 mm | - | 233 W/m² | - |
| 1788286548 | 16.11° C | 88% | 1013.3 hPa | 0 mm | - | 267 W/m² | - |
| 1788286229 | 16.11° C | 89% | 1013.4 hPa | 0 mm | - | 225 W/m² | - |
| 1788285927 | 15.56° C | 90% | 1013.3 hPa | 0 mm | - | 141 W/m² | - |
| 1788285623 | 15.56° C | 89% | 1013.4 hPa | 0 mm | - | 60 W/m² | - |
| 1788285317 | 16.11° C | 87% | 1013.4 hPa | 0 mm | - | 49 W/m² | - |
| 1788285016 | 16.11° C | 87% | 1013.5 hPa | 0 mm | - | 51 W/m² | - |
| 1788284713 | 16.11° C | 87% | 1013.3 hPa | 0 mm | - | 49 W/m² | - |
| 1788284408 | 16.11° C | 86% | 1013.4 hPa | 0 mm | - | 66 W/m² | - |
| 1788284103 | 16.67° C | 85% | 1013.2 hPa | 0 mm | - | 104 W/m² | - |
* Rain latest hour (hover to see other rain measurements)
** Current wind speed in m/s (hover to see current wind gust speed)